Weather reports worldwide

Advertisment
Arkona, Germany (10091): temperature & dewpoint: 20.03.2019 08:00:00 - 26.03.2019 08:00:00 (CET)Arkona, Germany (10091): temperature 5cm & temperature -5cm: 20.03.2019 08:00:00 - 26.03.2019 08:00:00 (CET)Arkona, Germany (10091): temperature -20cm & temperature -100cm: 20.03.2019 08:00:00 - 26.03.2019 08:00:00 (CET)Arkona, Germany (10091): water temperature: 20.03.2019 08:00:00 - 26.03.2019 08:00:00 (CET)Arkona, Germany (10091): wind speed & gusts: 20.03.2019 08:00:00 - 26.03.2019 08:00:00 (CET)Arkona, Germany (10091): wind direction: 20.03.2019 08:00:00 - 26.03.2019 08:00:00 (CET)Arkona, Germany (10091): reduced air pressure: 20.03.2019 08:00:00 - 26.03.2019 08:00:00 (CET)Arkona, Germany (10091): visibility: 20.03.2019 08:00:00 - 26.03.2019 08:00:00 (CET)Arkona, Germany (10091): sunshine duration: 20.03.2019 08:00:00 - 26.03.2019 08:00:00 (CET)Arkona, Germany (10091): precipitation: 20.03.2019 08:00:00 - 26.03.2019 08:00:00 (CET)
Date & Time tt [°C] td [°C] tt 5cm [°C] tt -5cm [°C] tt -20cm [°C] tt -100cm [°C] tw [°C] ff [km/h] ff [kn] fx [km/h] fx [kn] dd ppp [hPa] vv [km] sd [min] rr [mm]
26.03.2019 08:00:00 4,7 1,9 4,9 3,4 4,4 6,5 4,4 39 21 55 30 W 1018,6 28 60 0,0
26.03.2019 07:00:00 4,1 1,5 3,3 2,7 4,5 6,5 4,4 39 21 61 33 W 1018,7 29 33 0,0
26.03.2019 06:00:00 3,7 1,6 2,7 2,8 4,6 6,5 4,4 44 24 62 33 W 1018,3 26 0 0,0
26.03.2019 05:00:00 3,9 2,2 3,7 3,2 4,6 6,5 4,4 38 20 56 30 W 1018,7 21 0 0,0
26.03.2019 04:00:00 3,8 2,2 3,5 2,8 4,7 6,5 4,4 41 22 54 29 W 1019,2 27 0 0,0
26.03.2019 03:00:00 3,8 2,0 2,5 2,7 4,9 6,5 4,4 31 17 42 23 W 1019,6 35 0 0,0
26.03.2019 02:00:00 3,7 2,7 2,5 2,7 5,0 6,5 4,4 27 15 36 19 W 1020,4 27 0 0,0
26.03.2019 01:00:00 3,8 2,5 2,2 2,8 5,2 6,5 4,5 18 10 32 18 WNW 1020,8 33 0 0,0
26.03.2019 00:00:00 3,8 3,0 2,6 3,1 5,4 6,5 4,5 21 12 40 21 WNW 1021,0 24 0 0,0
25.03.2019 23:00:00 4,2 3,0 3,1 3,5 5,7 6,5 4,6 27 15 42 23 NW 1020,8 33 0 0,0
25.03.2019 22:00:00 4,5 2,9 3,3 3,7 5,9 6,5 4,5 25 14 36 19 WNW 1020,4 37 0 0,0
25.03.2019 21:00:00 4,7 3,1 3,4 4,1 6,1 6,5 4,5 23 13 34 18 WNW 1019,7 41 0 0,0
25.03.2019 20:00:00 4,6 3,2 3,2 4,5 6,4 6,5 4,5 20 11 29 16 WNW 1019,3 51 0 0,0
25.03.2019 19:00:00 4,0 2,3 2,6 5,3 6,6 6,5 4,6 16 9 21 11 W 1018,6 40 7 0,0
25.03.2019 18:00:00 4,0 2,6 3,1 7,0 6,6 6,5 4,6 12 7 19 10 WNW 1017,8 18 52 0,0
25.03.2019 17:00:00 4,7 2,4 5,8 8,4 6,4 6,5 4,6 8 5 21 11 N 1016,7 30 60 0,0
25.03.2019 16:00:00 5,2 2,4 8,2 8,9 6,2 6,5 4,6 11 6 31 17 N 1015,5 30 28 0,0
25.03.2019 15:00:00 4,7 3,1 5,6 8,3 5,9 6,5 4,6 20 11 29 16 NNE 1014,0 25 0 0,0
25.03.2019 14:00:00 5,6 3,4 7,6 8,1 5,6 6,5 4,5 16 9 37 20 NNW 1013,0 51 16 0,1
25.03.2019 13:00:00 4,7 3,0 4,9 6,9 5,3 6,5 4,5 22 12 38 20 WNW 1012,2 17 0 0,2
25.03.2019 12:00:00 5,1 2,4 5,9 7,2 5,0 6,5 4,5 24 13 39 21 WNW 1011,1 31 0 0,0
25.03.2019 11:00:00 4,6 2,3 5,4 6,2 4,8 6,5 4,5 29 15 41 22 WNW 1010,3 22 0 0,0
25.03.2019 10:00:00 4,4 2,4 5,2 5,1 4,6 6,5 4,5 27 15 45 24 WNW 1009,3 27 0 0,0
25.03.2019 09:00:00 3,9 2,4 3,8 3,8 4,6 6,5 4,5 23 12 46 25 WNW 1008,7 21 0 0,5
25.03.2019 08:00:00 3,1 2,1 2,7 2,6 4,7 6,5 4,5 27 14 44 24 WNW 1008,3 10 0 3,0
25.03.2019 07:00:00 0,4 0,1 0,1 2,9 4,8 6,5 4,5 27 15 42 23 WSW 1008,2 2,5 0 1,1
25.03.2019 06:00:00 2,6 1,9 2,3 3,3 4,9 6,5 4,5 33 18 43 23 SW 1008,2 11 0 0,8
25.03.2019 05:00:00 3,5 1,3 3,1 3,3 4,9 6,5 4,5 27 14 39 21 SW 1008,9 21 0 0,0
25.03.2019 04:00:00 3,4 1,2 3,0 3,1 5,0 6,5 4,5 27 15 39 21 SW 1010,3 25 0 0,0
25.03.2019 03:00:00 3,2 1,6 2,4 2,8 5,2 6,5 4,5 25 14 35 19 SW 1011,6 28 0 0,0
25.03.2019 02:00:00 3,5 2,0 1,7 2,8 5,4 6,5 4,4 24 13 36 19 WSW 1012,9 24 0 0,0
25.03.2019 01:00:00 3,3 1,7 1,8 3,3 5,5 6,5 4,5 26 14 36 19 WSW 1014,0 28 0 0,0
25.03.2019 00:00:00 4,4 2,2 3,9 3,9 5,7 6,5 4,6 29 16 37 20 WSW 1015,3 28 0 0,0
24.03.2019 23:00:00 4,1 1,7 2,9 3,7 5,9 6,5 4,6 27 15 42 23 WSW 1016,4 34 0 0,0
24.03.2019 22:00:00 4,4 1,4 3,3 3,7 6,1 6,5 4,6 29 16 39 21 WSW 1017,4 32 0 0,0
24.03.2019 21:00:00 4,1 1,2 2,7 3,9 6,4 6,5 4,6 27 15 34 18 WSW 1018,3 27 0 0,0
24.03.2019 20:00:00 4,1 2,0 2,7 4,5 6,7 6,5 4,6 24 13 34 18 WSW 1019,0 22 0 0,0
24.03.2019 19:00:00 3,9 2,2 2,7 5,3 6,9 6,5 4,5 23 12 36 20 WSW 1019,9 19 5 0,0
24.03.2019 18:00:00 5,0 2,2 4,9 6,6 7,0 6,5 4,5 29 16 46 25 WSW 1020,6 21 53 0,0
24.03.2019 17:00:00 5,9 2,7 6,3 7,8 6,9 6,5 4,5 35 19 44 24 WSW 1021,4 20 60 0,0
24.03.2019 16:00:00 6,3 2,0 7,6 8,9 6,7 6,5 4,6 34 19 41 22 WSW 1022,2 24 60 0,0
24.03.2019 15:00:00 6,7 1,4 8,7 9,2 6,4 6,5 4,6 31 17 40 21 W 1023,2 21 57 0,0
24.03.2019 14:00:00 6,0 3,1 8,0 9,2 6,0 6,5 4,5 27 15 32 17 W 1024,0 20 58 0,0
24.03.2019 13:00:00 5,8 3,2 8,7 8,1 5,6 6,5 4,5 26 14 33 18 W 1024,9 24 27 0,0
24.03.2019 12:00:00 4,8 3,4 6,0 6,5 5,5 6,5 4,4 28 15 36 20 W 1025,8 17 0 0,0
24.03.2019 11:00:00 4,9 3,6 5,4 5,8 5,3 6,5 4,4 27 15 37 20 W 1026,0 16 0 0,0
24.03.2019 10:00:00 4,6 3,3 5,1 5,5 5,2 6,5 4,4 27 15 32 18 W 1026,6 17 0 0,0
24.03.2019 09:00:00 4,7 3,3 5,1 4,7 5,1 6,5 4,4 26 14 34 18 W 1027,1 16 0 0,0
24.03.2019 08:00:00 4,3 2,9 4,1 3,9 5,2 6,5 4,4 27 14 31 17 W 1027,3 17 0 0,0
24.03.2019 07:00:00 3,8 2,3 3,3 3,4 5,3 6,4 4,4 23 12 30 16 W 1027,7 17 0 0,0
24.03.2019 06:00:00 4,0 2,3 3,2 3,3 5,4 6,4 4,4 22 12 29 16 W 1027,9 18 0 0,0
24.03.2019 05:00:00 4,0 2,4 2,8 3,2 5,5 6,4 4,4 21 11 29 16 WNW 1028,0 18 0 0,0
24.03.2019 04:00:00 4,0 2,2 3,1 3,3 5,7 6,4 4,4 22 12 29 16 W 1028,1 21 0 0,0
24.03.2019 03:00:00 4,1 2,0 2,9 3,3 5,9 6,4 - 20 11 32 18 W 1028,3 23 0 0,0
24.03.2019 02:00:00 4,3 1,9 2,7 3,4 6,1 6,4 4,4 19 11 33 18 WNW 1028,3 27 0 0,0
24.03.2019 01:00:00 4,7 1,7 3,1 3,8 6,3 6,4 4,5 19 11 32 18 WNW 1028,5 28 0 0,0
24.03.2019 00:00:00 4,7 2,1 3,2 4,0 6,6 6,4 4,5 20 11 34 18 WNW 1028,4 32 0 0,0
23.03.2019 23:00:00 5,1 1,9 3,7 4,4 6,9 6,4 4,5 22 12 37 20 WNW 1028,4 31 0 0,0
23.03.2019 22:00:00 5,6 2,5 4,2 4,9 7,1 6,4 4,5 23 12 36 19 WNW 1028,3 28 0 0,0
23.03.2019 21:00:00 5,6 3,3 4,3 5,5 7,4 6,4 4,5 24 13 36 19 W 1028,0 25 0 0,0
23.03.2019 20:00:00 7,3 3,4 6,1 6,1 7,6 6,4 4,5 27 14 37 20 W 1027,6 28 0 0,0
23.03.2019 19:00:00 7,1 3,7 5,8 6,8 7,8 6,4 4,6 24 13 36 19 W 1027,4 25 0 0,0
23.03.2019 18:00:00 7,2 4,5 6,8 7,8 7,9 6,4 4,6 26 14 43 23 W 1026,9 16 0 0,0
23.03.2019 17:00:00 8,6 4,4 8,5 8,9 7,9 6,4 4,6 34 18 48 26 W 1026,4 23 53 0,0
23.03.2019 16:00:00 8,8 5,0 9,5 9,7 7,7 6,3 4,6 34 18 46 25 W 1026,2 18 51 0,0
23.03.2019 15:00:00 8,4 6,4 9,6 10,3 7,5 6,3 4,5 39 21 48 26 W 1025,9 6 60 0,0
23.03.2019 14:00:00 8,5 6,9 10,9 10,0 7,2 6,3 4,5 36 19 43 23 W 1026,0 4,9 42 0,0
23.03.2019 13:00:00 7,0 6,5 8,1 8,7 7,0 6,3 4,5 29 16 47 26 WSW 1025,8 2,3 0 0,0
23.03.2019 12:00:00 7,1 6,1 8,3 9,1 6,8 6,3 4,5 34 18 49 26 WSW 1025,2 3,9 17 0,0
23.03.2019 11:00:00 6,2 6,0 7,4 7,7 6,7 6,3 4,4 35 19 43 23 W 1025,0 2,7 0 0,0
23.03.2019 10:00:00 5,4 5,3 6,0 7,2 6,6 6,3 4,4 33 18 43 23 W 1025,0 1,3 0 0,0
23.03.2019 09:00:00 5,4 5,4 5,9 6,9 6,5 6,3 4,4 24 13 43 23 W 1024,7 0,6 0 0,0
23.03.2019 08:00:00 6,9 6,9 7,1 6,8 6,5 6,3 4,4 31 17 39 21 W 1024,2 0,2 0 0,0
23.03.2019 07:00:00 7,5 7,3 7,4 6,0 6,6 6,3 4,4 22 12 29 16 SW 1023,9 2,3 0 0,0
23.03.2019 06:00:00 6,0 6,0 5,1 5,3 6,7 6,3 4,4 26 14 32 17 SW 1024,0 1,5 0 0,0
23.03.2019 05:00:00 6,5 6,4 5,8 5,7 6,8 6,3 4,4 31 17 35 19 SSW 1023,9 2,2 0 0,0
23.03.2019 04:00:00 7,0 6,9 6,3 6,0 6,9 6,3 4,4 28 15 34 18 SSW 1024,4 2,1 0 0,0
23.03.2019 03:00:00 7,1 7,0 6,4 6,5 7,0 6,2 4,3 29 16 36 19 SSW 1025,0 2,0 0 0,0
23.03.2019 02:00:00 7,3 7,1 7,0 6,6 7,1 6,2 4,3 29 16 39 21 SSW 1025,7 2,7 0 0,0
23.03.2019 01:00:00 7,2 6,8 6,5 6,5 7,2 6,2 4,4 31 17 37 20 SSW 1026,0 4,7 0 0,0
23.03.2019 00:00:00 7,6 6,9 6,7 7,1 7,2 6,2 4,3 29 16 35 19 SSW 1027,0 9 0 0,0
22.03.2019 23:00:00 8,4 7,4 7,9 7,3 7,3 6,2 4,3 25 13 32 17 SSW 1027,8 13 0 0,0
22.03.2019 22:00:00 7,6 7,0 7,2 7,1 7,3 6,2 4,3 24 13 30 16 S 1028,4 11 0 0,0
22.03.2019 21:00:00 6,5 6,4 6,5 7,1 7,4 6,2 4,3 21 12 26 14 S 1029,1 4,4 0 0,0
22.03.2019 20:00:00 6,1 6,1 6,3 7,2 7,6 6,2 4,3 14 7 22 12 SSE 1029,7 2,5 0 0,0
22.03.2019 19:00:00 5,8 5,8 5,9 7,3 7,7 6,2 4,3 15 8 29 16 SSE 1029,9 0,4 0 0,0
22.03.2019 18:00:00 5,6 5,6 5,8 7,8 7,8 6,2 4,4 23 12 29 15 SE 1030,6 0,2 0 0,0
22.03.2019 17:00:00 5,6 5,4 6,0 8,5 7,9 6,2 4,4 21 11 26 14 ESE 1031,0 1,9 0 0,0
22.03.2019 16:00:00 6,1 5,4 6,8 9,2 7,8 6,2 4,5 10 5 13 7 SE 1031,9 9 0 0,0
22.03.2019 15:00:00 6,9 6,0 7,8 9,6 7,7 6,2 4,6 9 5 15 8 S 1032,4 14 0 0,0
22.03.2019 14:00:00 6,2 5,0 7,5 10,1 7,6 6,2 4,7 9 5 13 7 SE 1033,2 12 0 0,0
22.03.2019 13:00:00 7,9 6,0 9,1 10,2 7,3 6,1 4,7 9 5 13 7 S 1033,3 20 0 0,0
22.03.2019 12:00:00 8,0 5,5 9,4 10,1 7,1 6,1 4,6 8 4 18 10 S 1033,6 23 0 0,0
22.03.2019 11:00:00 8,0 5,6 9,3 9,3 6,8 6,1 4,5 9 5 13 7 S 1033,8 23 0 0,0
22.03.2019 10:00:00 7,7 5,4 8,0 8,5 6,7 6,1 4,4 10 6 18 10 SSW 1033,7 25 0 0,0
22.03.2019 09:00:00 7,6 6,8 8,0 7,6 6,6 6,1 4,3 4 2 9 5 SW 1033,5 10 0 0,0
22.03.2019 08:00:00 6,8 5,8 6,8 6,6 6,6 6,1 4,3 8 4 14 8 W 1033,5 11 0 0,0
22.03.2019 07:00:00 6,0 5,7 5,1 6,2 6,7 6,1 4,3 14 8 18 10 W 1033,0 5 14 0,0
22.03.2019 06:00:00 6,1 5,9 6,1 6,6 6,7 6,1 4,3 13 7 21 11 WNW 1032,8 2,3 0 0,0
22.03.2019 05:00:00 6,4 6,4 6,4 6,6 6,8 6,1 4,2 14 7 26 14 WNW 1032,6 3,0 0 0,0
22.03.2019 04:00:00 5,9 5,9 6,0 6,7 6,9 6,1 4,2 19 10 36 19 WNW 1032,6 0,2 0 0,0
22.03.2019 03:00:00 6,5 6,5 6,5 6,8 6,9 6,1 4,2 29 15 43 23 W 1032,0 0,3 0 0,0
22.03.2019 02:00:00 6,5 6,5 6,6 6,9 7,0 6,1 4,2 31 17 47 26 W 1031,5 0,3 0 0,1
22.03.2019 01:00:00 7,1 7,1 7,1 7,2 7,0 6,1 4,3 32 17 49 26 W 1031,0 0,6 0 0,0
22.03.2019 00:00:00 7,3 7,3 7,3 7,2 7,1 6,1 4,2 39 21 49 27 W 1031,3 0,4 0 0,0
21.03.2019 23:00:00 6,9 6,9 6,9 7,3 7,1 6,1 4,2 39 21 50 27 W 1031,3 0,2 0 0,0
21.03.2019 22:00:00 7,0 7,0 7,0 7,4 7,2 6,1 4,2 36 20 50 27 WSW 1030,7 0,4 0 0,0
21.03.2019 21:00:00 7,7 7,1 7,7 7,7 7,3 6,1 4,2 40 22 54 29 WSW 1030,6 3,5 0 0,0
21.03.2019 20:00:00 8,6 7,6 8,5 8,0 7,3 6,1 4,2 45 24 58 32 W 1030,7 4,8 0 0,0
21.03.2019 19:00:00 8,9 7,3 8,7 8,1 7,3 6,1 4,2 45 24 59 32 WSW 1030,4 7 0 0,0
21.03.2019 18:00:00 9,2 7,4 9,0 8,4 7,4 6,1 4,2 48 26 61 33 WSW 1029,6 8 0 0,0
21.03.2019 17:00:00 8,8 7,3 8,9 8,9 7,3 6,1 4,2 44 24 63 34 WSW 1029,5 8 0 0,0
21.03.2019 16:00:00 8,6 7,1 9,2 9,3 7,2 6,1 4,2 48 26 63 34 WSW 1029,5 8 0 0,0
21.03.2019 15:00:00 8,1 6,9 8,5 9,1 7,1 6,1 4,2 50 27 71 38 WSW 1030,6 9 0 0,0
21.03.2019 14:00:00 8,6 7,4 9,4 9,6 6,9 6,1 4,2 54 29 66 36 WSW 1030,3 8 0 0,0
21.03.2019 13:00:00 8,6 7,5 9,4 9,8 6,6 6,1 4,2 50 27 65 35 WSW 1030,4 5 0 0,0
21.03.2019 12:00:00 8,8 7,3 9,5 9,6 6,3 6,1 4,2 51 28 65 35 WSW 1030,5 8 1 0,0
21.03.2019 11:00:00 8,9 7,6 9,7 8,4 6,1 6,1 4,2 43 23 55 30 WSW 1030,5 7 0 0,0
21.03.2019 10:00:00 8,9 7,8 9,5 8,0 5,9 6,1 4,2 42 23 54 29 WSW 1030,3 6 0 0,0
21.03.2019 09:00:00 8,4 7,5 8,7 7,5 5,7 6,1 4,2 42 23 57 31 WSW 1030,3 4,0 0 0,0
21.03.2019 08:00:00 7,9 7,4 8,0 6,8 5,6 6,1 4,2 35 19 48 26 WSW 1030,0 2,9 1 0,0
21.03.2019 07:00:00 7,2 7,0 7,1 6,2 5,6 6,1 4,2 30 16 43 23 WSW 1030,1 2,8 0 0,0
21.03.2019 06:00:00 6,9 6,9 6,9 6,0 5,5 6,1 4,2 36 19 44 24 WSW 1030,0 1,4 0 0,1
21.03.2019 05:00:00 6,5 6,5 6,5 5,8 5,5 6,1 4,2 30 16 45 25 WSW 1030,1 0,2 0 0,0
21.03.2019 04:00:00 6,0 6,0 5,9 5,7 5,5 6,1 4,2 33 18 43 23 WSW 1030,4 0,2 0 0,0
21.03.2019 03:00:00 6,0 5,8 5,9 5,6 5,5 6,1 4,1 27 14 34 18 WSW 1030,7 2,0 0 0,0
21.03.2019 02:00:00 6,1 5,7 5,9 5,7 5,5 6,1 4,1 23 13 29 16 WSW 1031,1 7 0 0,0
21.03.2019 01:00:00 6,3 5,8 6,0 5,8 5,5 6,1 4,1 26 14 34 19 W 1031,4 11 0 0,0
21.03.2019 00:00:00 6,3 5,8 6,0 5,8 5,5 6,1 4,1 28 15 38 20 W 1031,2 8 0 0,0
20.03.2019 23:00:00 6,3 5,8 6,0 5,7 5,6 6,1 4,1 31 17 44 24 W 1030,5 6 0 0,0
20.03.2019 22:00:00 6,0 5,6 5,2 5,6 5,6 6,1 4,1 31 17 42 23 WSW 1029,9 4,6 0 0,0
20.03.2019 21:00:00 6,6 6,3 6,2 6,2 5,6 6,1 4,1 36 20 46 25 W 1030,2 3,8 0 0,0
20.03.2019 20:00:00 6,6 6,6 6,5 6,3 5,5 6,1 4,1 36 19 55 30 W 1029,9 0,8 0 0,0
20.03.2019 19:00:00 6,9 6,8 6,8 6,4 5,5 6,1 4,1 36 19 53 29 W 1028,8 1,6 0 0,1
20.03.2019 18:00:00 6,9 6,6 6,7 6,5 5,4 6,1 4,1 41 22 57 31 WSW 1028,6 1,9 0 0,0
20.03.2019 17:00:00 7,1 6,3 6,8 6,9 5,3 6,1 4,1 43 23 60 32 WSW 1028,2 5 0 0,0
20.03.2019 16:00:00 7,3 6,1 7,1 6,9 5,1 6,1 4,1 44 24 59 32 WSW 1028,2 7 0 0,0
20.03.2019 15:00:00 7,0 6,7 7,2 6,9 4,9 6,1 4,1 37 20 53 29 WSW 1027,7 3,6 0 0,3
20.03.2019 14:00:00 7,0 6,2 7,1 7,0 4,6 6,1 4,1 36 19 52 28 WSW 1028,4 2,4 0 0,0
20.03.2019 13:00:00 8,2 4,7 9,0 6,6 4,2 6,1 4,1 38 21 49 27 SW 1028,2 23 0 0,0
20.03.2019 12:00:00 7,1 4,1 7,3 6,4 3,9 6,1 4,1 33 18 44 24 SW 1028,5 21 0 0,0
20.03.2019 11:00:00 6,6 3,2 6,9 5,7 3,5 6,1 4,1 35 19 45 24 SW 1028,5 20 0 0,0
20.03.2019 10:00:00 5,6 2,3 6,3 4,3 3,3 6,1 4,1 28 15 40 22 SW 1028,7 32 0 0,0
20.03.2019 09:00:00 4,4 1,6 4,8 2,9 3,2 6,1 4,1 31 17 38 21 SW 1028,6 39 0 0,0
20.03.2019 08:00:00 3,4 1,2 3,0 1,1 3,2 6,1 4,1 29 15 35 19 SW 1028,8 34 0 0,0

tt = temperature
td = dewpoint
tt 5cm = temperature 5cm
tt -5cm = temperature -5cm
tt -20cm = temperature -20cm
tt -100cm = temperature -100cm
tw = water temperature
ff = wind speed
fx = gusts
dd = wind direction
ppp = reduced air pressure
vv = visibility
sd = sunshine duration
rr = precipitation

Next stations